Tracking 21045 objects as of 4-Aug-2020
HD Live streaming from Space Station
objects crossing your sky now

COSMOS 1455

Track COSMOS 1455 now!
10-day predictions
COSMOS 1455 is classified as:


NORAD ID: 14032
Int'l Code: 1983-037A
Perigee: 507.5 km
Apogee: 528.6 km
Inclination: 82.5 °
Period: 94.8 minutes
Semi major axis: 6889 km
RCS: 6.2678 m2 (large)
Launch date: April 23, 1983
Source: Commonwealth of Independent States (former USSR) (CIS)
Launch site: PLESETSK MISSILE AND SPACE COMPLEX (PKMTR)
aabbcc
Your satellite tracking list
Your tracking list is empty




NASA's NSSDC Master Catalog

Two Line Element Set (TLE):
1 14032U 83037A   20216.61770619 +.00000325 +00000-0 +14192-4 0  9990
2 14032 082.5144 036.9461 0015332 262.8726 097.0764 15.18331279034811
Source of the keplerian elements: AFSPC